Regional Weather Roundup
Issued by NWS

Home | Current Version | Previous Version | Text Only | Print | Product List | Glossary Off
Versions: 1 2 3 4 5 6 7 8 9 10 11 12 13 14 15 16 17 18 19 20 21 22 23 24 25 26 27 28 29 30 31 32 33 34 35 36 37 38 39 40 41 42 43 44 45 46 47 48 49 50

000
ASUS43 KDMX 262107
RWRIA

WEATHER ROUNDUP FOR IOWA
NATIONAL WEATHER SERVICE DES MOINES IA
400 PM CDT TUE MAY 26 2015

NOTE: "FAIR" INDICATES FEW OR NO CLOUDS BELOW 12,000 FEET WITH NO
SIGNIFICANT WEATHER AND/OR OBSTRUCTIONS TO VISIBILITY.

* - THESE STATIONS ARE NOT NWS STATIONS...THUS NOT UNDER NWS
QUALITY CONTROL.  THEY ALSO DO NOT REPORT WEATHER SUCH
AS PRECIPITATION OR FOG.

IAZ001>003-012>014-020>022-031>034-043>046-262200-
   NORTHWEST IOWA

CITY           SKY/WX    TMP DP  RH WIND       PRES   REMARKS
CARROLL *      CLOUDY    66  63  88 N10       29.79R
CHEROKEE *     CLOUDY    59  59 100 NW7       29.82S
DENISON *      LGT RAIN  63  63 100 W9G18     29.80S
LE MARS *      CLOUDY    61  55  82 NW9       29.85S
ORANGE CITY *  CLOUDY    57  54  88 NW8       29.84S
SHELDON *      CLOUDY    59  36  41 N10       29.82S
SIOUX CITY     PTSUNNY   65  56  72 NW12      29.83F
SPENCER        LGT RAIN  60  58  92 NW12      29.81S
STORM LAKE *   CLOUDY    61  59  94 NW12      29.82S
$$

IAZ055>058-069>071-079>083-090>094-262200-
   SOUTHWEST IOWA

CITY           SKY/WX    TMP DP  RH WIND       PRES   REMARKS
ATLANTIC *     HVY RAIN  63  61  94 W15G24    29.82R
AUDUBON *      LGT RAIN  66  61  82 SW8       29.82R
COUNCIL BLFS * CLOUDY    64  64 100 NW12      29.85R
CRESTON *      CLOUDY    70  61  73 SW13      29.81F
HARLAN  *      PTSUNNY   64  64 100 W10       29.86R
LAMONI         MOSUNNY   73  64  73 W9        29.81F
RED OAK *      MOSUNNY   70  63  78 W13G20    29.82S
SHENANDOAH *   PTSUNNY   70  64  83 SW13      29.84R
$$

IAZ047>049-059>061-072>074-084-262200-
   CENTRAL IOWA

CITY           SKY/WX    TMP DP  RH WIND       PRES   REMARKS
AMES           CLOUDY    68  61  78 W10       29.79F
ANKENY *       CLOUDY    68  63  83 CALM      29.79F
CHARITON *     PTSUNNY   70  63  78 SW10G17   29.81S
DES MOINES     PTSUNNY   70  61  73 SW13      29.79F
GRINNELL*      PTSUNNY   70  61  73 W15G22    29.80S
KNOXVILLE *    MOSUNNY   72  63  73 SW9G17    29.79S
MARSHALLTOWN   PTSUNNY   69  60  73 W16       29.78R
PELLA *        PTSUNNY   70  64  83 W6        29.81S
PERRY *        PTSUNNY   68  61  77 SW7       29.80S
$$

IAZ004>006-015-016-023>025-035-036-262200-
   NORTH CENTRAL IOWA

CITY           SKY/WX    TMP DP  RH WIND       PRES   REMARKS
ALGONA *       MOSUNNY   63  63 100 NW10      29.80R FOG
CLARION *      CLOUDY    64 N/A N/A W12       29.80R
ESTHERVILLE    LGT RAIN  59  57  93 NW10      29.80S
FORT DODGE *   PTSUNNY   66  59  77 SW5       29.80S
MASON CITY     LGT RAIN  66  60  81 W15       29.78S
FOREST CITY *  LGT RAIN  59  59 100 W12       29.78R
IOWA FALLS *   CLOUDY    66  61  82 W15       29.79S
$$

IAZ007>011-017>019-026>030-037>042-050>054-066-262200-
   NORTHEAST IOWA

CITY           SKY/WX    TMP DP  RH WIND       PRES   REMARKS
CEDAR RAPIDS   PTSUNNY   70  61  73 W21G28    29.76R
CHARLES CITY * MOSUNNY   63  63 100 NW13      29.76R
CLINTON *      CLOUDY    72  61  68 W22G35    29.77R
DECORAH *      LGT RAIN  61  61 100 W10G20    29.70R
DUBUQUE        PTSUNNY   68  62  81 W28G37    29.71R
MONTICELLO *   CLOUDY    68  64  88 W21G29    29.74R
OELWEIN *      DRIZZLE   63  61  94 W22       29.76R
WATERLOO       LGT RAIN  64  61  90 W9        29.76R
$$

IAZ064-065-067-068-078-262200-
   EAST CENTRAL IOWA

CITY           SKY/WX    TMP DP  RH WIND       PRES   REMARKS
DAVENPORT      PTSUNNY   72  60  66 W24G36    29.77R
IOWA CITY      CLOUDY    70  60  70 W17G26    29.79R
MT. PLEASANT * PTSUNNY   73  61  64 SW17G24   29.81F
MUSCATINE *    PTSUNNY   73  61  64 W16G25    29.79R
QUAD CITIES    PTSUNNY   73  59  61 SW18G33   29.77R
$$

IAZ062-063-075>077-085>089-095>099-262200-
   SOUTHEAST IOWA

CITY           SKY/WX    TMP DP  RH WIND       PRES   REMARKS
BURLINGTON     MOSUNNY   75  63  66 W13       29.82R
FAIRFIELD *    PTSUNNY   73  61  64 SW17      29.81S
FORT MADISON * PTSUNNY   73  61  64 SW10      29.84S
KEOKUK *       PTSUNNY   75  61  60 SW15G24   29.83S
OSKALOOSA *    PTSUNNY   72  63  73 SW18      29.81S
CENTERVILLE *  MOSUNNY   72  72 100 SW13      29.83F
OTTUMWA        LGT RAIN  70  62  76 W12       29.80F
WASHINGTON *   CLOUDY    72  61  68 SW18G28   29.82R
$$

ABBREVIATIONS USED IN REMARKS
   TC - TEMPERATURES IN CELSIUS
  WCI - WIND CHILL INDEX
   HX - HEAT INDEX
  VSB - VISIBILITY
$$




USA.gov is the U.S. government's official web portal to all federal, state and local government web resources and services.